| time (UTC) | temp C | wind direction | speed KPH | gust KPH | rain 1hr cm | rain 24hr cm | rain mn cm | humidity % | barometer mb |
| 20260504050751 | 8 | 277 | 0.0 | 0.0 | 0.00 | 0.00 | 0.00 | 90 | 1022.3 |
| 20260504045249 | 8 | 277 | 0.0 | 0.0 | 0.00 | 0.00 | 0.00 | 90 | 1022.3 |
| 20260504044748 | 8 | 280 | 0.0 | 0.0 | 0.00 | 0.00 | 0.00 | 90 | 1022.2 |
| 20260504043746 | 7 | 280 | 0.0 | 0.0 | 0.00 | 0.00 | 0.00 | 90 | 1022.2 |
| 20260504043241 | 7 | 280 | 0.0 | 0.0 | 0.00 | 0.00 | 0.00 | 89 | 1022.1 |
| 20260504042740 | 7 | 280 | 0.0 | 0.0 | 0.00 | 0.00 | 0.00 | 89 | 1022.2 |
| 20260504042237 | 7 | 280 | 0.0 | 0.0 | 0.00 | 0.00 | 0.00 | 89 | 1022.2 |
| 20260504041735 | 7 | 280 | 0.0 | 0.0 | 0.00 | 0.00 | 0.00 | 89 | 1022.1 |
| 20260504040735 | 7 | 280 | 0.0 | 1.6 | 0.00 | 0.00 | 0.00 | 89 | 1022.0 |
| 20260504040235 | 7 | 280 | 0.0 | 4.8 | 0.00 | 0.00 | 0.00 | 89 | 1022.0 |
| 20260504035735 | 7 | 283 | 0.0 | 4.8 | 0.00 | 0.00 | 0.00 | 88 | 1022.0 |
| 20260504034740 | 7 | 271 | 0.0 | 3.2 | 0.00 | 0.00 | 0.00 | 88 | 1022.0 |
| 20260504034235 | 7 | 269 | 0.0 | 1.6 | 0.00 | 0.00 | 0.00 | 88 | 1022.0 |
| 20260504033735 | 7 | 269 | 0.0 | 0.0 | 0.00 | 0.00 | 0.00 | 89 | 1021.9 |
| 20260504033233 | 7 | 269 | 0.0 | 0.0 | 0.00 | 0.00 | 0.00 | 88 | 1022.0 |
| 20260504032734 | 7 | 269 | 0.0 | 3.2 | 0.00 | 0.00 | 0.00 | 88 | 1022.1 |
| 20260504032231 | 7 | 269 | 0.0 | 3.2 | 0.00 | 0.00 | 0.00 | 88 | 1022.2 |
| 20260504031731 | 7 | 271 | 0.0 | 0.0 | 0.00 | 0.00 | 0.00 | 88 | 1022.1 |
| 20260504031238 | 7 | 271 | 0.0 | 0.0 | 0.00 | 0.00 | 0.00 | 88 | 1022.0 |
| 20260504030720 | 7 | 271 | 0.0 | 0.0 | 0.00 | 0.00 | 0.00 | 87 | 1022.1 |
| 20260504030216 | 8 | 271 | 0.0 | 1.6 | 0.00 | 0.00 | 0.00 | 88 | 1022.1 |
| 20260504025211 | 8 | 271 | 0.0 | 3.2 | 0.00 | 0.00 | 0.00 | 88 | 1022.1 |
| 20260504024709 | 8 | 271 | 1.6 | 6.4 | 0.00 | 0.00 | 0.00 | 87 | 1022.1 |
| 20260504024209 | 8 | 274 | 0.0 | 6.4 | 0.00 | 0.00 | 0.00 | 87 | 1022.1 |
| 20260504023710 | 8 | 271 | 0.0 | 1.6 | 0.00 | 0.00 | 0.00 | 87 | 1022.2 |
| 20260504023207 | 8 | 271 | 0.0 | 0.0 | 0.00 | 0.00 | 0.00 | 87 | 1022.1 |
| 20260504022707 | 8 | 271 | 0.0 | 0.0 | 0.00 | 0.00 | 0.00 | 87 | 1022.1 |
| 20260504022207 | 8 | 271 | 0.0 | 0.0 | 0.00 | 0.00 | 0.00 | 87 | 1022.2 |
| 20260504021705 | 8 | 271 | 0.0 | 0.0 | 0.00 | 0.00 | 0.00 | 87 | 1022.3 |
| 20260504021203 | 8 | 271 | 0.0 | 0.0 | 0.00 | 0.00 | 0.00 | 87 | 1022.3 |
| 20260504020703 | 8 | 271 | 0.0 | 0.0 | 0.00 | 0.00 | 0.00 | 86 | 1022.3 |
| 20260504015659 | 8 | 271 | 0.0 | 0.0 | 0.00 | 0.00 | 0.00 | 86 | 1022.2 |
| 20260504015159 | 8 | 271 | 0.0 | 0.0 | 0.00 | 0.00 | 0.00 | 86 | 1022.2 |
| 20260504014659 | 8 | 271 | 0.0 | 0.0 | 0.00 | 0.00 | 0.00 | 86 | 1022.2 |
| 20260504014200 | 8 | 271 | 0.0 | 0.0 | 0.00 | 0.00 | 0.00 | 86 | 1022.2 |
| 20260504013703 | 8 | 271 | 0.0 | 0.0 | 0.00 | 0.00 | 0.00 | 85 | 1022.1 |
| 20260504013157 | 9 | 271 | 0.0 | 0.0 | 0.00 | 0.00 | 0.00 | 85 | 1022.2 |
| 20260504012658 | 9 | 271 | 0.0 | 0.0 | 0.00 | 0.00 | 0.00 | 85 | 1022.1 |
| 20260504012158 | 9 | 271 | 0.0 | 0.0 | 0.00 | 0.00 | 0.00 | 85 | 1022.1 |
| 20260504011657 | 9 | 271 | 0.0 | 0.0 | 0.00 | 0.00 | 0.00 | 85 | 1022.1 |
| 20260504011159 | 9 | 271 | 0.0 | 0.0 | 0.00 | 0.00 | 0.00 | 85 | 1022.1 |
| 20260504010657 | 9 | 271 | 0.0 | 0.0 | 0.00 | 0.00 | 0.00 | 85 | 1022.1 |
| 20260504010157 | 10 | 271 | 0.0 | 0.0 | 0.00 | 0.00 | 0.00 | 85 | 1022.2 |
| 20260504005657 | 10 | 271 | 0.0 | 0.0 | 0.00 | 0.00 | 0.00 | 85 | 1022.2 |
| 20260504005200 | 10 | 271 | 0.0 | 1.6 | 0.00 | 0.00 | 0.00 | 84 | 1022.2 |
| 20260504004657 | 10 | 271 | 0.0 | 1.6 | 0.00 | 0.00 | 0.00 | 84 | 1022.3 |
| 20260504004157 | 10 | 271 | 0.0 | 3.2 | 0.00 | 0.00 | 0.00 | 84 | 1022.4 |
| 20260504003657 | 10 | 271 | 0.0 | 3.2 | 0.00 | 0.00 | 0.00 | 84 | 1022.2 |
| 20260504002156 | 10 | 271 | 0.0 | 0.0 | 0.00 | 0.00 | 0.00 | 84 | 1022.3 |
| 20260504001659 | 10 | 271 | 0.0 | 4.8 | 0.00 | 0.00 | 0.00 | 83 | 1022.3 |
| 20260504001155 | 10 | 272 | 0.0 | 4.8 | 0.00 | 0.00 | 0.00 | 83 | 1022.3 |
| 20260504000654 | 10 | 269 | 0.0 | 3.2 | 0.00 | 0.00 | 0.00 | 83 | 1022.3 |
| 20260503235656 | 11 | 269 | 0.0 | 3.2 | 0.00 | 0.00 | 0.00 | 82 | 1022.4 |
| 20260503235155 | 11 | 268 | 0.0 | 3.2 | 0.00 | 0.00 | 0.00 | 83 | 1022.4 |
| 20260503234656 | 11 | 267 | 0.0 | 3.2 | 0.00 | 0.00 | 0.00 | 83 | 1022.3 |
| 20260503234156 | 11 | 269 | 0.0 | 1.6 | 0.00 | 0.00 | 0.00 | 83 | 1022.4 |
| 20260503233654 | 11 | 269 | 0.0 | 1.6 | 0.00 | 0.00 | 0.00 | 83 | 1022.5 |
| 20260503233152 | 11 | 269 | 0.0 | 4.8 | 0.00 | 0.00 | 0.00 | 83 | 1022.5 |
| 20260503232150 | 11 | 280 | 0.0 | 3.2 | 0.00 | 0.00 | 0.00 | 82 | 1022.6 |
| 20260503231644 | 11 | 280 | 0.0 | 4.8 | 0.00 | 0.00 | 0.00 | 82 | 1022.5 |
| 20260503231138 | 11 | 281 | 0.0 | 4.8 | 0.00 | 0.00 | 0.00 | 81 | 1022.6 |
| 20260503230634 | 11 | 271 | 0.0 | 0.0 | 0.00 | 0.00 | 0.00 | 81 | 1022.6 |
| 20260503230126 | 11 | 271 | 0.0 | 0.0 | 0.00 | 0.00 | 0.00 | 81 | 1022.6 |
| 20260503225114 | 12 | 270 | 0.0 | 4.8 | 0.00 | 0.00 | 0.00 | 80 | 1022.5 |
| 20260503224608 | 12 | 271 | 0.0 | 4.8 | 0.00 | 0.00 | 0.00 | 80 | 1022.6 |
| 20260503223558 | 12 | 264 | 0.0 | 0.0 | 0.00 | 0.00 | 0.00 | 80 | 1022.6 |
| 20260503223049 | 12 | 264 | 0.0 | 0.0 | 0.00 | 0.00 | 0.00 | 80 | 1022.6 |
| 20260503222557 | 12 | 264 | 0.0 | 0.0 | 0.00 | 0.00 | 0.00 | 80 | 1022.5 |
| 20260503222039 | 12 | 264 | 0.0 | 0.0 | 0.00 | 0.00 | 0.00 | 80 | 1022.5 |
| 20260503221031 | 12 | 264 | 0.0 | 0.0 | 0.00 | 0.00 | 0.00 | 79 | 1022.4 |
| 20260503220532 | 12 | 264 | 0.0 | 0.0 | 0.00 | 0.00 | 0.00 | 79 | 1022.4 |
| 20260503220030 | 13 | 277 | 0.0 | 0.0 | 0.00 | 0.00 | 0.00 | 78 | 1022.3 |
| 20260503215040 | 13 | 277 | 0.0 | 0.0 | 0.00 | 0.00 | 0.00 | 77 | 1022.2 |
| 20260503214527 | 13 | 277 | 0.0 | 0.0 | 0.00 | 0.00 | 0.00 | 77 | 1022.1 |
| 20260503214026 | 13 | 277 | 0.0 | 1.6 | 0.00 | 0.00 | 0.00 | 76 | 1022.2 |
| 20260503213524 | 13 | 277 | 0.0 | 1.6 | 0.00 | 0.00 | 0.00 | 76 | 1022.0 |
| 20260503213021 | 14 | 278 | 0.0 | 0.0 | 0.00 | 0.00 | 0.00 | 75 | 1022.0 |
| 20260503212519 | 14 | 279 | 0.0 | 0.0 | 0.00 | 0.00 | 0.00 | 75 | 1022.0 |
| 20260503212018 | 14 | 279 | 0.0 | 0.0 | 0.00 | 0.00 | 0.00 | 75 | 1022.0 |
| 20260503211517 | 14 | 279 | 0.0 | 3.2 | 0.00 | 0.00 | 0.00 | 74 | 1022.0 |
| 20260503211015 | 14 | 280 | 0.0 | 3.2 | 0.00 | 0.00 | 0.00 | 74 | 1022.0 |
| 20260503210515 | 15 | 283 | 0.0 | 1.6 | 0.00 | 0.00 | 0.00 | 73 | 1022.0 |
| 20260503210015 | 15 | 276 | 0.0 | 1.6 | 0.00 | 0.00 | 0.00 | 72 | 1021.9 |
| 20260503205514 | 15 | 274 | 0.0 | 3.2 | 0.00 | 0.00 | 0.00 | 71 | 1021.9 |
| 20260503205015 | 15 | 270 | 0.0 | 3.2 | 0.00 | 0.00 | 0.00 | 71 | 1021.9 |
| 20260503203513 | 15 | 284 | 1.6 | 8.0 | 0.00 | 0.00 | 0.00 | 71 | 1021.7 |
| 20260503203013 | 16 | 297 | 1.6 | 8.0 | 0.00 | 0.00 | 0.00 | 70 | 1021.7 |
| 20260503202509 | 16 | 281 | 0.0 | 8.0 | 0.00 | 0.00 | 0.00 | 69 | 1021.6 |
| 20260503201507 | 16 | 271 | 0.0 | 1.6 | 0.00 | 0.00 | 0.00 | 68 | 1021.4 |
| 20260503201007 | 16 | 271 | 0.0 | 6.4 | 0.00 | 0.00 | 0.00 | 68 | 1021.3 |
| 20260503200506 | 16 | 271 | 0.0 | 6.4 | 0.00 | 0.00 | 0.00 | 68 | 1021.3 |
| 20260503200009 | 16 | 271 | 0.0 | 4.8 | 0.00 | 0.00 | 0.00 | 68 | 1021.2 |
| 20260503195507 | 16 | 271 | 0.0 | 0.0 | 0.00 | 0.00 | 0.00 | 67 | 1021.2 |
| 20260503194504 | 17 | 271 | 0.0 | 4.8 | 0.00 | 0.00 | 0.00 | 66 | 1021.2 |
| 20260503193003 | 17 | 246 | 0.0 | 3.2 | 0.00 | 0.00 | 0.00 | 64 | 1021.1 |
| 20260503192503 | 18 | 273 | 0.0 | 4.8 | 0.00 | 0.00 | 0.00 | 63 | 1021.0 |
| 20260503192003 | 18 | 274 | 0.0 | 4.8 | 0.00 | 0.00 | 0.00 | 61 | 1021.0 |
| 20260503191506 | 18 | 320 | 0.0 | 3.2 | 0.00 | 0.00 | 0.00 | 60 | 1020.9 |
| 20260503191003 | 18 | 264 | 0.0 | 3.2 | 0.00 | 0.00 | 0.00 | 60 | 1020.9 |
| 20260503190504 | 18 | 310 | 0.0 | 3.2 | 0.00 | 0.00 | 0.00 | 59 | 1020.8 |
| 20260503190000 | 18 | 342 | 0.0 | 1.6 | 0.00 | 0.00 | 0.00 | 59 | 1020.8 |
| 20260503185502 | 19 | 281 | 0.0 | 0.0 | 0.00 | 0.00 | 0.00 | 59 | 1020.8 |
| 20260503185001 | 19 | 281 | 0.0 | 0.0 | 0.00 | 0.00 | 0.00 | 59 | 1020.7 |
| 20260503184502 | 19 | 281 | 0.0 | 0.0 | 0.00 | 0.00 | 0.00 | 59 | 1020.6 |
| 20260503184000 | 19 | 304 | 0.0 | 0.0 | 0.00 | 0.00 | 0.00 | 58 | 1020.6 |
| 20260503183502 | 19 | 306 | 0.0 | 0.0 | 0.00 | 0.00 | 0.00 | 58 | 1020.5 |
| 20260503183001 | 20 | 307 | 0.0 | 1.6 | 0.00 | 0.00 | 0.00 | 58 | 1020.6 |
| 20260503182503 | 20 | 279 | 0.0 | 1.6 | 0.00 | 0.00 | 0.00 | 58 | 1020.5 |
| 20260503182001 | 20 | 279 | 0.0 | 4.8 | 0.00 | 0.00 | 0.00 | 58 | 1020.5 |
| 20260503181459 | 20 | 281 | 0.0 | 4.8 | 0.00 | 0.00 | 0.00 | 58 | 1020.5 |
| 20260503180457 | 20 | 297 | 0.0 | 0.0 | 0.00 | 0.00 | 0.00 | 56 | 1020.4 |
| 20260503175956 | 21 | 297 | 0.0 | 1.6 | 0.00 | 0.00 | 0.00 | 55 | 1020.4 |
| 20260503175454 | 21 | 298 | 0.0 | 1.6 | 0.00 | 0.00 | 0.00 | 53 | 1020.4 |
| 20260503174451 | 21 | 303 | 0.0 | 1.6 | 0.00 | 0.00 | 0.00 | 51 | 1020.4 |
| 20260503173948 | 22 | 316 | 0.0 | 1.6 | 0.00 | 0.00 | 0.00 | 50 | 1020.3 |
| 20260503173447 | 22 | 342 | 0.0 | 1.6 | 0.00 | 0.00 | 0.00 | 48 | 1020.3 |
| 20260503171943 | 23 | 300 | 0.0 | 0.0 | 0.00 | 0.00 | 0.00 | 45 | 1020.2 |
| 20260503171441 | 23 | 305 | 0.0 | 0.0 | 0.00 | 0.00 | 0.00 | 43 | 1020.3 |
| 20260503170439 | 24 | 294 | 0.0 | 0.0 | 0.00 | 0.00 | 0.00 | 40 | 1020.2 |
| 20260503150417 | 25 | 266 | 1.6 | 11.3 | 0.00 | 0.00 | 0.00 | 42 | 1020.5 |
| 20260503131345 | 25 | 350 | 3.2 | 14.5 | 0.00 | 0.00 | 0.00 | 39 | 1021.7 |
| 20260503130837 | 25 | 226 | 3.2 | 14.5 | 0.00 | 0.00 | 0.00 | 41 | 1021.7 |
| 20260503130331 | 25 | 271 | 1.6 | 11.3 | 0.00 | 0.00 | 0.00 | 41 | 1021.7 |
| 20260503120218 | 24 | 346 | 1.6 | 12.9 | 0.00 | 0.00 | 0.00 | 39 | 1022.1 |
| 20260503110201 | 22 | 189 | 1.6 | 8.0 | 0.00 | 0.00 | 0.00 | 45 | 1022.3 |
| 20260503100151 | 21 | 161 | 1.6 | 6.4 | 0.00 | 0.00 | 0.00 | 51 | 1023.0 |
| 20260503090147 | 18 | 108 | 1.6 | 8.0 | 0.00 | 0.00 | 0.00 | 63 | 1023.6 |
| 20260503081135 | 16 | 139 | 1.6 | 4.8 | 0.00 | 0.00 | 0.00 | 69 | 1023.9 |
| 20260503080630 | 16 | 150 | 0.0 | 6.4 | 0.00 | 0.00 | 0.00 | 70 | 1024.0 |
| 20260503080124 | 15 | 143 | 0.0 | 6.4 | 0.00 | 0.00 | 0.00 | 70 | 1024.0 |
| 20260503072542 | 14 | 116 | 0.0 | 4.8 | 0.00 | 0.00 | 0.00 | 73 | 1024.2 |
| 20260503072036 | 14 | 120 | 0.0 | 4.8 | 0.00 | 0.00 | 0.00 | 72 | 1024.4 |
| 20260503071531 | 13 | 124 | 0.0 | 4.8 | 0.00 | 0.00 | 0.00 | 73 | 1024.4 |
| 20260503070517 | 13 | 98 | 0.0 | 4.8 | 0.00 | 0.00 | 0.00 | 72 | 1024.5 |